Simultaneous Nadir Overpasses (SNOs) Predictions

Prediction of SNOs between NOAA-20 and NOAA-19 Satellite Orbit:

Table of predicted SNOs for the next 14.0 days since TLE Epoch: 1/28/2023
Index Date (NOAA-20) Time (NOAA-20) Lat,Lon (NOAA-20) SZA (NOAA-20 ) Date (NOAA-19) Time (NOAA-19) Lat,Lon (NOAA-19) SZA (NOAA-19 ) Distance(km) Time Diff (sec)
1 02/06/2023 00:00:46 -75.48, -15.12 88.13 02/05/2023 23:59:36 -75.51, -16.90 87.94 49.67 70
2 02/06/2023 00:51:38 75.78, 151.25 92.22 02/06/2023 00:50:31 75.80, 151.33 92.25 3.07 67
3 02/06/2023 01:42:22 -75.77, -41.40 87.81 02/06/2023 01:41:29 -75.80, -41.40 87.76 3.43 53
4 02/06/2023 02:33:08 75.78, 125.86 92.21 02/06/2023 02:32:31 75.77, 125.75 92.22 3.09 37
5 02/06/2023 03:23:53 -75.82, -66.94 87.77 02/06/2023 03:23:28 -75.82, -66.82 87.77 3.23 25
6 02/06/2023 04:14:38 75.79, 100.46 92.19 02/06/2023 04:14:30 75.79, 100.33 92.21 3.63 8
7 02/06/2023 05:05:23 -75.82, -92.34 87.78 02/06/2023 05:05:27 -75.84, -92.25 87.78 2.76 4
8 02/06/2023 05:56:09 75.84, 74.92 92.23 02/06/2023 05:56:29 75.81, 74.91 92.20 3.20 20
9 02/06/2023 06:46:53 -75.83,-117.73 87.80 02/06/2023 06:47:26 -75.86,-117.68 87.79 3.38 33
10 02/06/2023 07:37:38 75.85, 49.53 92.22 02/06/2023 07:38:27 75.83, 49.49 92.19 1.88 49
11 02/06/2023 08:28:22 -75.83,-143.12 87.81 02/06/2023 08:29:25 -75.83,-143.26 87.83 3.77 63
12 02/06/2023 09:19:11 75.99, 23.67 92.37 02/06/2023 09:20:24 75.94, 24.38 92.24 19.97 73



Historial Predications of SNOs between NOAA-20 and NOAA-19
